This is the latest recevied weather packets stored in our database for station/object KD4MBW. If no packets are shown the sender has not sent any weather packets the latest 10 day(s).
| Time | Temp. | Humidity | Pressure | Rain* | Wind** | Luminosity | Snow |
|---|---|---|---|---|---|---|---|
| 1787442166 | 30° C | 83% | 1014.1 hPa | 0 mm | - | 42 W/m² | - |
| 1787441861 | 30° C | 83% | 1014.1 hPa | 0 mm | - | 49 W/m² | - |
| 1787441560 | 30° C | 84% | 1014 hPa | 0 mm | - | 55 W/m² | - |
| 1787441256 | 30° C | 83% | 1014.3 hPa | 0 mm | - | 63 W/m² | - |
| 1787440952 | 30° C | 82% | 1014 hPa | 0 mm | - | 70 W/m² | - |
| 1787440647 | 30° C | 82% | 1014.1 hPa | 0 mm | - | 71 W/m² | - |
| 1787440342 | 30.56° C | 82% | 1014.3 hPa | 0 mm | - | 87 W/m² | - |
| 1787440039 | 30° C | 82% | 1014.3 hPa | 0 mm | - | 103 W/m² | - |
| 1787439734 | 30° C | 81% | 1014 hPa | 0 mm | - | 103 W/m² | - |
| 1787439430 | 30.56° C | 81% | 1013.9 hPa | 0 mm | - | 98 W/m² | - |
| 1787439127 | 30.56° C | 80% | 1014 hPa | 0 mm | - | 116 W/m² | - |
| 1787438822 | 30.56° C | 80% | 1013.9 hPa | 0 mm | - | 130 W/m² | - |
| 1787438521 | 31.11° C | 79% | 1014.1 hPa | 0 mm | - | 125 W/m² | - |
| 1787438215 | 31.11° C | 77% | 1014 hPa | 0 mm | - | 156 W/m² | - |
| 1787437910 | 31.11° C | 78% | 1013.9 hPa | 0 mm | - | 171 W/m² | - |
| 1787437607 | 31.11° C | 75% | 1014.2 hPa | 0 mm | - | 180 W/m² | - |
| 1787437303 | 31.67° C | 72% | 1014.2 hPa | 0 mm | - | 185 W/m² | - |
| 1787437000 | 31.67° C | 72% | 1013.9 hPa | 0 mm | - | 210 W/m² | - |
| 1787436695 | 31.67° C | 70% | 1013.9 hPa | 0 mm | - | 225 W/m² | - |
| 1787436390 | 31.67° C | 68% | 1013.8 hPa | 0 mm | - | 247 W/m² | - |
| 1787436085 | 32.22° C | 69% | 1013.5 hPa | 0 mm | - | 261 W/m² | - |
| 1787435780 | 32.22° C | 69% | 1013.6 hPa | 0 mm | - | 290 W/m² | - |
| 1787435476 | 32.22° C | 69% | 1013.7 hPa | 0 mm | - | 306 W/m² | - |
| 1787435173 | 32.22° C | 68% | 1013.5 hPa | 0 mm | - | 326 W/m² | - |
| 1787434868 | 32.78° C | 67% | 1013.8 hPa | 0 mm | - | 341 W/m² | - |
* Rain latest hour (hover to see other rain measurements)
** Current wind speed in m/s (hover to see current wind gust speed)